Total_Precipitation_Accumulation
0.05 0.06 0.16 0.17 0.16 0.15 0.16 0.16 0.14 0.13 0.15 0.16 0.18 0.21 0.19 0.20 0.20 0.22 0.24 0.28 0.30 0.26 0.27 0.30 0.28 0.27 0.26 0.25 0.24 0.23 0.18 0.16 0.14 0.15 0.20 0.26 0.25 0.19 0.17 0.17 0.13 0.20 0.27
0.04 0.05 0.11 0.11 0.11 0.12 0.12 0.13 0.11 0.10 0.11 0.12 0.12 0.14 0.15 0.17 0.18 0.19 0.23 0.28 0.32 0.27 0.26 0.28 0.30 0.31 0.30 0.29 0.29 0.27 0.19 0.13 0.10 0.10 0.11 0.15 0.21 0.20 0.17 0.18 0.19 0.31 0.34
0.02 0.04 0.06 0.08 0.09 0.09 0.11 0.11 0.10 0.09 0.09 0.09 0.08 0.09 0.11 0.14 0.17 0.19 0.22 0.23 0.26 0.29 0.28 0.28 0.37 0.39 0.36 0.35 0.34 0.30 0.24 0.13 0.08 0.08 0.08 0.15 0.23 0.26 0.23 0.21 0.20 0.24 0.28
0.01 0.02 0.03 0.07 0.09 0.09 0.10 0.10 0.09 0.09 0.08 0.08 0.07 0.07 0.10 0.12 0.14 0.17 0.22 0.25 0.28 0.37 0.40 0.43 0.49 0.47 0.42 0.37 0.34 0.30 0.28 0.18 0.09 0.07 0.05 0.15 0.30 0.34 0.29 0.25 0.20 0.21 0.25
0.00 0.01 0.02 0.06 0.08 0.09 0.09 0.10 0.10 0.09 0.08 0.09 0.08 0.07 0.09 0.11 0.13 0.15 0.18 0.23 0.30 0.41 0.42 0.41 0.45 0.43 0.40 0.37 0.33 0.34 0.38 0.28 0.13 0.05 0.04 0.11 0.25 0.39 0.34 0.31 0.26 0.21 0.22
0.00 0.00 0.02 0.06 0.08 0.09 0.10 0.11 0.12 0.10 0.09 0.10 0.09 0.08 0.09 0.09 0.10 0.12 0.14 0.16 0.21 0.28 0.30 0.34 0.38 0.39 0.37 0.34 0.29 0.33 0.42 0.37 0.15 0.04 0.05 0.08 0.20 0.36 0.35 0.32 0.29 0.23 0.20
0.00 0.00 0.01 0.05 0.08 0.10 0.11 0.12 0.13 0.11 0.10 0.09 0.10 0.11 0.10 0.09 0.09 0.11 0.10 0.10 0.11 0.14 0.18 0.27 0.36 0.41 0.40 0.34 0.30 0.34 0.43 0.35 0.13 0.10 0.12 0.12 0.18 0.25 0.37 0.37 0.31 0.28 0.24
0.00 0.00 0.01 0.05 0.08 0.10 0.12 0.13 0.16 0.14 0.12 0.11 0.12 0.14 0.13 0.12 0.13 0.15 0.12 0.10 0.10 0.10 0.13 0.18 0.30 0.48 0.47 0.35 0.33 0.39 0.39 0.21 0.08 0.08 0.11 0.15 0.18 0.29 0.59 0.65 0.45 0.34 0.31
0.00 0.00 0.02 0.04 0.07 0.10 0.12 0.14 0.17 0.16 0.14 0.14 0.15 0.15 0.14 0.13 0.13 0.16 0.15 0.13 0.14 0.13 0.13 0.14 0.23 0.43 0.46 0.38 0.39 0.44 0.31 0.12 0.04 0.11 0.10 0.19 0.17 0.38 0.72 0.80 0.66 0.47 0.36
0.00 0.00 0.02 0.04 0.06 0.07 0.09 0.13 0.16 0.16 0.15 0.15 0.15 0.13 0.11 0.11 0.11 0.12 0.10 0.09 0.12 0.15 0.15 0.13 0.15 0.28 0.35 0.35 0.44 0.40 0.18 0.06 0.02 0.07 0.17 0.17 0.15 0.40 0.79 0.88 0.81 0.65 0.51
0.01 0.01 0.02 0.05 0.06 0.06 0.07 0.09 0.12 0.13 0.12 0.13 0.12 0.11 0.11 0.10 0.09 0.08 0.07 0.06 0.09 0.13 0.15 0.17 0.17 0.22 0.27 0.26 0.32 0.26 0.09 0.04 0.04 0.08 0.16 0.15 0.17 0.38 0.75 0.92 0.87 0.79 0.69
0.01 0.01 0.02 0.05 0.07 0.06 0.05 0.06 0.08 0.08 0.09 0.08 0.09 0.09 0.11 0.12 0.11 0.10 0.08 0.07 0.10 0.11 0.14 0.19 0.21 0.21 0.20 0.19 0.31 0.26 0.12 0.09 0.09 0.06 0.09 0.08 0.19 0.39 0.63 0.83 0.93 0.87 0.81
0.00 0.01 0.02 0.04 0.06 0.05 0.04 0.05 0.06 0.07 0.09 0.10 0.10 0.12 0.16 0.18 0.17 0.13 0.11 0.10 0.10 0.10 0.12 0.17 0.21 0.20 0.25 0.39 0.53 0.42 0.28 0.22 0.13 0.07 0.04 0.05 0.14 0.29 0.48 0.66 0.86 0.97 0.97
0.00 0.01 0.02 0.04 0.05 0.05 0.04 0.04 0.04 0.04 0.05 0.07 0.09 0.10 0.12 0.14 0.13 0.11 0.08 0.07 0.08 0.09 0.11 0.15 0.17 0.21 0.24 0.31 0.36 0.33 0.27 0.24 0.17 0.12 0.07 0.06 0.09 0.15 0.28 0.44 0.65 0.91 1.01
0.00 0.01 0.02 0.03 0.04 0.04 0.04 0.04 0.03 0.03 0.03 0.03 0.04 0.04 0.05 0.07 0.07 0.07 0.05 0.04 0.03 0.05 0.07 0.08 0.10 0.12 0.16 0.20 0.20 0.21 0.22 0.21 0.17 0.16 0.14 0.10 0.09 0.11 0.17 0.29 0.42 0.67 0.93
0.00 0.00 0.01 0.02 0.02 0.03 0.03 0.03 0.03 0.02 0.02 0.02 0.02 0.03 0.02 0.03 0.03 0.03 0.02 0.02 0.01 0.02 0.04 0.06 0.06 0.07 0.10 0.14 0.14 0.14 0.15 0.14 0.13 0.14 0.15 0.15 0.12 0.11 0.16 0.23 0.32 0.43 0.69
0.00 0.00 0.01 0.01 0.02 0.03 0.03 0.03 0.03 0.02 0.02 0.02 0.02 0.01 0.01 0.01 0.01 0.01 0.01 0.01 0.01 0.02 0.05 0.10 0.14 0.15 0.15 0.17 0.16 0.18 0.17 0.16 0.15 0.17 0.18 0.18 0.18 0.16 0.17 0.27 0.32 0.36 0.49
0.00 0.00 0.00 0.01 0.01 0.02 0.03 0.03 0.03 0.02 0.02 0.02 0.01 0.01 0.01 0.02 0.02 0.02 0.02 0.02 0.01 0.02 0.05 0.11 0.17 0.20 0.20 0.22 0.22 0.25 0.26 0.26 0.21 0.22 0.24 0.21 0.21 0.20 0.19 0.23 0.32 0.37 0.47
0.00 0.00 0.00 0.00 0.00 0.01 0.02 0.02 0.02 0.02 0.02 0.01 0.01 0.01 0.01 0.01 0.03 0.04 0.04 0.04 0.03 0.03 0.06 0.10 0.13 0.18 0.20 0.24 0.26 0.28 0.33 0.35 0.32 0.28 0.25 0.23 0.23 0.21 0.22 0.24 0.28 0.32 0.42
0.00 0.00 0.00 0.00 0.00 0.01 0.01 0.02 0.02 0.02 0.01 0.01 0.01 0.01 0.01 0.01 0.01 0.02 0.03 0.04 0.05 0.07 0.09 0.11 0.14 0.16 0.19 0.25 0.29 0.29 0.34 0.36 0.35 0.32 0.29 0.30 0.30 0.24 0.23 0.24 0.26 0.27 0.30
0.00 0.00 0.00 0.00 0.00 0.00 0.01 0.01 0.01 0.01 0.01 0.01 0.01 0.01 0.01 0.01 0.01 0.01 0.01 0.02 0.03 0.05 0.08 0.11 0.12 0.13 0.13 0.17 0.22 0.20 0.20 0.23 0.27 0.26 0.25 0.28 0.32 0.35 0.34 0.31 0.29 0.28 0.29
0.00 0.00 0.00 0.00 0.00 0.00 0.00 0.01 0.01 0.01 0.01 0.01 0.01 0.01 0.01 0.01 0.01 0.01 0.01 0.02 0.02 0.02 0.02 0.02 0.04 0.06 0.06 0.08 0.16 0.20 0.17 0.15 0.16 0.17 0.18 0.22 0.28 0.35 0.39 0.40 0.39 0.36 0.33
0.00 0.00 0.00 0.00 0.00 0.00 0.00 0.00 0.00 0.00 0.01 0.01 0.01 0.01 0.01 0.00 0.01 0.01 0.01 0.01 0.01 0.01 0.01 0.01 0.02 0.03 0.04 0.04 0.08 0.24 0.33 0.24 0.16 0.12 0.14 0.16 0.19 0.21 0.24 0.29 0.34 0.38 0.38
0.00 0.00 0.00 0.00 0.00 0.00 0.00 0.00 0.01 0.01 0.01 0.01 0.01 0.00 0.00 0.00 0.00 0.00 0.01 0.01 0.01 0.01 0.01 0.02 0.02 0.03 0.05 0.06 0.06 0.11 0.21 0.26 0.32 0.21 0.07 0.06 0.08 0.10 0.12 0.15 0.19 0.24 0.29
0.00 0.00 0.00 0.00 0.00 0.00 0.00 0.00 0.00 0.01 0.00 0.00 0.00 0.00 0.00 0.00 0.00 0.01 0.01 0.01 0.01 0.01 0.02 0.02 0.02 0.03 0.05 0.08 0.10 0.11 0.10 0.12 0.21 0.35 0.17 0.03 0.03 0.05 0.08 0.10 0.14 0.18 0.23
0.00 0.00 0.00 0.00 0.00 0.00 0.00 0.00 0.00 0.00 0.00 0.00 0.00 0.00 0.00 0.00 0.00 0.01 0.01 0.01 0.02 0.02 0.02 0.03 0.04 0.05 0.06 0.08 0.11 0.13 0.18 0.22 0.21 0.29 0.27 0.11 0.06 0.03 0.05 0.07 0.10 0.15 0.22